Location: Hradec Králové
(50.2104°N, 15.8252°E)
Time: 22:26:59
(UTC+02:00)

ISS - Visible Passes

Search period start: 03 April 2020 00:00
Search period end: 13 April 2020 00:00
Orbit: 418 x 423 km, 51.6° (Epoch: 04 April)

Date Brightness Start Highest point End Pass type
(mag) Time Alt. Az. Time Alt. Az. Time Alt. Az.
03 Apr -1.7 21:02:58 10° W 21:05:32 20° SW 21:07:16 14° S visible
04 Apr -2.2 20:15:35 10° W 20:18:33 29° SSW 20:21:31 10° SSE visible
06 Apr -1.1 20:18:56 10° WSW 20:20:43 14° SW 20:22:30 10° S visible
